Time,TemperatureF,DewpointF,PressureIn,WindDirection,WindDirectionDegrees,WindSpeedMPH,WindSpeedGustMPH,Humidity,HourlyPrecipIn,Conditions,Clouds,dailyrainin,SoftwareType,DateUTC
2013-06-06 00:01:00,61.6,15.0,29.70,West,276,0.0,0.0,16,0.00,,---,0.00,VWS V14.00,2013-06-06 04:01:00,
2013-06-06 00:03:00,61.0,15.9,29.70,West,276,0.0,0.0,17,0.00,,---,0.00,VWS V14.00,2013-06-06 04:03:00,
2013-06-06 00:08:00,60.1,15.2,29.71,West,276,0.0,0.0,17,0.00,,---,0.00,VWS V14.00,2013-06-06 04:08:00,
2013-06-06 00:13:00,59.3,14.5,29.71,West,276,0.0,0.0,17,0.00,,---,0.00,VWS V14.00,2013-06-06 04:13:00,
2013-06-06 00:18:00,58.7,15.3,29.71,West,276,0.0,0.0,18,0.00,,---,0.00,VWS V14.00,2013-06-06 04:18:00,
2013-06-06 00:23:00,58.0,14.8,29.71,West,276,0.0,0.0,18,0.00,,---,0.00,VWS V14.00,2013-06-06 04:23:00,
2013-06-06 00:28:00,57.5,14.4,29.72,West,276,0.0,0.0,18,0.00,,---,0.00,VWS V14.00,2013-06-06 04:28:00,
2013-06-06 00:33:00,57.2,14.1,29.72,West,276,0.0,0.0,18,0.00,,---,0.00,VWS V14.00,2013-06-06 04:33:00,
2013-06-06 00:38:00,57.0,16.4,29.72,West,276,0.0,0.0,20,0.00,,---,0.00,VWS V14.00,2013-06-06 04:38:00,
2013-06-06 00:43:00,57.6,15.7,29.72,West,276,0.0,0.0,19,0.00,,---,0.00,VWS V14.00,2013-06-06 04:43:00,
2013-06-06 00:48:00,58.2,16.2,29.73,West,276,0.0,0.0,19,0.00,,---,0.00,VWS V14.00,2013-06-06 04:48:00,
2013-06-06 00:53:00,58.8,16.7,29.73,West,276,0.0,0.0,19,0.00,,---,0.00,VWS V14.00,2013-06-06 04:53:00,
2013-06-06 00:58:00,60.3,16.6,29.72,West,276,0.0,0.0,18,0.00,,---,0.00,VWS V14.00,2013-06-06 04:58:00,
2013-06-06 01:03:00,61.1,17.3,29.72,West,276,0.0,0.0,18,0.00,,---,0.00,VWS V14.00,2013-06-06 05:03:00,
2013-06-06 01:08:00,61.4,17.5,29.72,West,276,0.0,0.0,18,0.00,,---,0.00,VWS V14.00,2013-06-06 05:08:00,
2013-06-06 01:13:00,62.3,18.3,29.73,West,276,0.0,0.0,18,0.00,,---,0.00,VWS V14.00,2013-06-06 05:13:00,
2013-06-06 01:18:00,63.9,19.6,29.73,West,276,0.0,0.0,18,0.00,,---,0.00,VWS V14.00,2013-06-06 05:18:00,
2013-06-06 01:23:00,65.4,19.5,29.73,West,276,0.0,0.0,17,0.00,,---,0.00,VWS V14.00,2013-06-06 05:23:00,
2013-06-06 01:28:00,66.6,19.0,29.73,West,276,0.0,0.0,16,0.00,,---,0.00,VWS V14.00,2013-06-06 05:28:00,
2013-06-06 01:34:00,67.4,19.7,29.73,West,276,0.0,0.0,16,0.00,,---,0.00,VWS V14.00,2013-06-06 05:34:00,
2013-06-06 01:39:00,68.6,19.1,29.73,West,276,0.0,0.0,15,0.00,,---,0.00,VWS V14.00,2013-06-06 05:39:00,
2013-06-06 01:44:00,69.9,20.2,29.73,West,276,0.0,0.0,15,0.00,,---,0.00,VWS V14.00,2013-06-06 05:44:00,
2013-06-06 01:49:00,70.7,20.8,29.73,West,276,0.0,0.0,15,0.00,,---,0.00,VWS V14.00,2013-06-06 05:49:00,
2013-06-06 01:54:00,70.8,19.3,29.73,West,276,0.0,0.0,14,0.00,,---,0.00,VWS V14.00,2013-06-06 05:54:00,
2013-06-06 01:59:00,70.1,18.7,29.73,West,276,0.0,0.0,14,0.00,,---,0.00,VWS V14.00,2013-06-06 05:59:00,
2013-06-06 02:04:00,68.4,19.0,29.73,West,276,0.0,0.0,15,0.00,,---,0.00,VWS V14.00,2013-06-06 06:04:00,
2013-06-06 02:09:00,66.9,17.8,29.73,West,276,0.0,0.0,15,0.00,,---,0.00,VWS V14.00,2013-06-06 06:09:00,
2013-06-06 02:14:00,65.5,19.6,29.73,West,276,0.0,0.0,17,0.00,,---,0.00,VWS V14.00,2013-06-06 06:14:00,
2013-06-06 02:19:00,64.7,18.9,29.73,West,276,0.0,0.0,17,0.00,,---,0.00,VWS V14.00,2013-06-06 06:19:00,
2013-06-06 02:24:00,64.0,18.3,29.73,West,276,0.0,0.0,17,0.00,,---,0.00,VWS V14.00,2013-06-06 06:24:00,
2013-06-06 02:29:00,62.9,18.8,29.74,West,276,0.0,0.0,18,0.00,,---,0.00,VWS V14.00,2013-06-06 06:29:00,
2013-06-06 02:34:00,61.8,17.9,29.73,West,276,0.0,0.0,18,0.00,,---,0.00,VWS V14.00,2013-06-06 06:34:00,
2013-06-06 02:39:00,61.0,18.5,29.73,West,276,0.0,0.0,19,0.00,,---,0.00,VWS V14.00,2013-06-06 06:39:00,
2013-06-06 02:44:00,61.0,18.5,29.73,West,276,0.0,0.0,19,0.00,,---,0.00,VWS V14.00,2013-06-06 06:44:00,
2013-06-06 02:49:00,60.8,18.3,29.73,West,276,0.0,0.0,19,0.00,,---,0.00,VWS V14.00,2013-06-06 06:49:00,
2013-06-06 02:54:00,59.7,17.4,29.73,West,276,0.0,0.0,19,0.00,,---,0.00,VWS V14.00,2013-06-06 06:54:00,
2013-06-06 02:59:00,58.3,17.4,29.73,West,276,0.0,0.0,20,0.00,,---,0.00,VWS V14.00,2013-06-06 06:59:00,
2013-06-06 03:00:00,57.7,18.1,29.73,West,276,0.0,0.0,21,0.00,,---,0.00,VWS V14.00,2013-06-06 07:00:00,
2013-06-06 03:04:00,57.2,17.6,29.73,West,276,0.0,0.0,21,0.00,,---,0.00,VWS V14.00,2013-06-06 07:04:00,
2013-06-06 03:09:00,56.7,17.2,29.73,West,276,0.0,0.0,21,0.00,,---,0.00,VWS V14.00,2013-06-06 07:09:00,
2013-06-06 03:14:00,56.6,18.2,29.73,West,276,0.0,0.0,22,0.00,,---,0.00,VWS V14.00,2013-06-06 07:14:00,
2013-06-06 03:19:00,56.9,17.4,29.72,West,276,0.0,0.0,21,0.00,,---,0.00,VWS V14.00,2013-06-06 07:19:00,
2013-06-06 03:24:00,57.3,18.8,29.73,West,276,0.0,0.0,22,0.00,,---,0.00,VWS V14.00,2013-06-06 07:24:00,
2013-06-06 03:29:00,57.7,19.1,29.73,West,276,0.0,0.0,22,0.00,,---,0.00,VWS V14.00,2013-06-06 07:29:00,
2013-06-06 03:30:00,57.7,19.1,29.73,West,276,0.0,0.0,22,0.00,,---,0.00,VWS V14.00,2013-06-06 07:30:00,
2013-06-06 03:34:00,57.6,19.1,29.73,West,276,0.0,0.0,22,0.00,,---,0.00,VWS V14.00,2013-06-06 07:34:00,
2013-06-06 03:39:00,57.0,18.5,29.73,West,276,0.0,0.0,22,0.00,,---,0.00,VWS V14.00,2013-06-06 07:39:00,
2013-06-06 03:44:00,56.1,18.8,29.73,West,276,0.0,0.0,23,0.00,,---,0.00,VWS V14.00,2013-06-06 07:44:00,
2013-06-06 03:49:00,55.3,18.1,29.73,West,276,0.0,0.0,23,0.00,,---,0.00,VWS V14.00,2013-06-06 07:49:00,
2013-06-06 03:54:00,54.6,17.6,29.72,West,276,0.0,0.0,23,0.00,,---,0.00,VWS V14.00,2013-06-06 07:54:00,
2013-06-06 03:59:00,53.7,16.8,29.72,West,276,0.0,0.0,23,0.00,,---,0.00,VWS V14.00,2013-06-06 07:59:00,
2013-06-06 04:00:00,53.2,16.4,29.72,West,276,0.0,0.0,23,0.00,,---,0.00,VWS V14.00,2013-06-06 08:00:00,
2013-06-06 04:04:00,52.6,17.8,29.72,West,276,0.0,0.0,25,0.00,,---,0.00,VWS V14.00,2013-06-06 08:04:00,
2013-06-06 04:09:00,51.7,17.9,29.73,West,276,0.0,0.0,26,0.00,,---,0.00,VWS V14.00,2013-06-06 08:09:00,
2013-06-06 04:14:00,51.1,16.5,29.72,West,276,0.0,0.0,25,0.00,,---,0.00,VWS V14.00,2013-06-06 08:14:00,
2013-06-06 04:19:00,50.8,17.2,29.72,West,276,0.0,0.0,26,0.00,,---,0.00,VWS V14.00,2013-06-06 08:19:00,
2013-06-06 04:24:00,50.6,17.0,29.72,West,276,0.0,0.0,26,0.00,,---,0.00,VWS V14.00,2013-06-06 08:24:00,
2013-06-06 04:29:00,50.5,17.8,29.72,West,276,0.0,0.0,27,0.00,,---,0.00,VWS V14.00,2013-06-06 08:29:00,
2013-06-06 04:30:00,50.4,16.8,29.72,West,276,0.0,0.0,26,0.00,,---,0.00,VWS V14.00,2013-06-06 08:30:00,
2013-06-06 04:34:00,50.3,16.7,29.72,West,276,0.0,0.0,26,0.00,,---,0.00,VWS V14.00,2013-06-06 08:34:00,
2013-06-06 04:39:00,49.8,16.3,29.72,West,276,0.0,0.0,26,0.00,,---,0.00,VWS V14.00,2013-06-06 08:39:00,
2013-06-06 04:44:00,49.6,17.9,29.72,West,276,0.0,0.0,28,0.00,,---,0.00,VWS V14.00,2013-06-06 08:44:00,
2013-06-06 04:49:00,49.7,17.1,29.72,West,276,0.0,0.0,27,0.00,,---,0.00,VWS V14.00,2013-06-06 08:49:00,
2013-06-06 04:54:00,49.5,16.9,29.72,West,276,0.0,0.0,27,0.00,,---,0.00,VWS V14.00,2013-06-06 08:54:00,
2013-06-06 04:59:00,49.2,15.8,29.72,West,276,0.0,0.0,26,0.00,,---,0.00,VWS V14.00,2013-06-06 08:59:00,
2013-06-06 05:00:00,49.0,16.5,29.72,West,276,0.0,0.0,27,0.00,,---,0.00,VWS V14.00,2013-06-06 09:00:00,
2013-06-06 05:04:00,48.7,17.9,29.72,West,276,0.0,0.0,29,0.00,,---,0.00,VWS V14.00,2013-06-06 09:04:00,
2013-06-06 05:09:00,48.9,17.2,29.72,West,276,0.0,0.0,28,0.00,,---,0.00,VWS V14.00,2013-06-06 09:09:00,
2013-06-06 05:14:00,49.2,17.5,29.72,West,276,0.0,0.0,28,0.00,,---,0.00,VWS V14.00,2013-06-06 09:14:00,
2013-06-06 05:19:00,49.6,17.0,29.72,West,276,0.0,0.0,27,0.00,,---,0.00,VWS V14.00,2013-06-06 09:19:00,
2013-06-06 05:24:00,50.1,19.1,29.72,West,276,0.0,0.0,29,0.00,,---,0.00,VWS V14.00,2013-06-06 09:24:00,
2013-06-06 05:29:00,51.2,18.4,29.72,West,276,0.0,0.0,27,0.00,,---,0.00,VWS V14.00,2013-06-06 09:29:00,
2013-06-06 05:30:00,51.4,17.7,29.72,West,276,0.0,0.0,26,0.00,,---,0.00,VWS V14.00,2013-06-06 09:30:00,
2013-06-06 05:34:00,51.2,17.5,29.72,West,276,0.0,0.0,26,0.00,,---,0.00,VWS V14.00,2013-06-06 09:34:00,
2013-06-06 05:39:00,50.5,16.9,29.72,West,276,0.0,0.0,26,0.00,,---,0.00,VWS V14.00,2013-06-06 09:39:00,
2013-06-06 05:44:00,49.9,17.3,29.72,West,276,0.0,0.0,27,0.00,,---,0.00,VWS V14.00,2013-06-06 09:44:00,
2013-06-06 05:49:00,49.4,17.7,29.72,West,276,0.0,0.0,28,0.00,,---,0.00,VWS V14.00,2013-06-06 09:49:00,
2013-06-06 05:54:00,48.8,17.2,29.72,West,276,0.0,0.0,28,0.00,,---,0.00,VWS V14.00,2013-06-06 09:54:00,
2013-06-06 05:59:00,48.5,17.7,29.72,West,276,0.0,0.0,29,0.00,,---,0.00,VWS V14.00,2013-06-06 09:59:00,
2013-06-06 06:00:00,48.5,18.5,29.72,West,276,0.0,0.0,30,0.00,,---,0.00,VWS V14.00,2013-06-06 10:00:00,
2013-06-06 06:04:00,48.8,18.0,29.72,West,276,0.0,0.0,29,0.00,,---,0.00,VWS V14.00,2013-06-06 10:04:00,
2013-06-06 06:09:00,50.0,19.8,29.72,West,276,0.0,0.0,30,0.00,,---,0.00,VWS V14.00,2013-06-06 10:09:00,
2013-06-06 06:14:00,51.7,18.8,29.72,West,276,0.0,0.0,27,0.00,,---,0.00,VWS V14.00,2013-06-06 10:14:00,
2013-06-06 06:19:00,53.2,20.1,29.72,West,276,0.0,0.0,27,0.00,,---,0.00,VWS V14.00,2013-06-06 10:19:00,
2013-06-06 06:24:00,54.4,19.3,29.72,West,276,0.0,0.0,25,0.00,,---,0.00,VWS V14.00,2013-06-06 10:24:00,
2013-06-06 06:30:00,54.5,20.3,29.71,West,276,0.0,0.0,26,0.00,,---,0.00,VWS V14.00,2013-06-06 10:30:00,
2013-06-06 06:35:00,54.5,19.4,29.72,West,276,0.0,0.0,25,0.00,,---,0.00,VWS V14.00,2013-06-06 10:35:00,
2013-06-06 06:40:00,53.7,18.7,29.72,West,276,0.0,0.0,25,0.00,,---,0.00,VWS V14.00,2013-06-06 10:40:00,
2013-06-06 06:45:00,52.6,18.7,29.71,West,276,0.0,0.0,26,0.00,,---,0.00,VWS V14.00,2013-06-06 10:45:00,
2013-06-06 06:50:00,51.5,17.8,29.72,West,276,0.0,0.0,26,0.00,,---,0.00,VWS V14.00,2013-06-06 10:50:00,
2013-06-06 06:55:00,51.3,20.1,29.71,West,276,0.0,0.0,29,0.00,,---,0.00,VWS V14.00,2013-06-06 10:55:00,
2013-06-06 07:00:00,53.0,20.8,29.72,West,276,0.0,0.0,28,0.00,,---,0.00,VWS V14.00,2013-06-06 11:00:00,
2013-06-06 07:05:00,54.4,20.2,29.71,West,276,0.0,0.0,26,0.00,,---,0.00,VWS V14.00,2013-06-06 11:05:00,
2013-06-06 07:10:00,54.6,20.4,29.71,West,276,0.0,0.0,26,0.00,,---,0.00,VWS V14.00,2013-06-06 11:10:00,
2013-06-06 07:15:00,54.7,20.5,29.71,West,276,0.0,0.0,26,0.00,,---,0.00,VWS V14.00,2013-06-06 11:15:00,
2013-06-06 07:20:00,55.3,21.0,29.71,West,276,0.0,0.0,26,0.00,,---,0.00,VWS V14.00,2013-06-06 11:20:00,
2013-06-06 07:25:00,55.9,21.5,29.71,West,276,0.0,0.0,26,0.00,,---,0.00,VWS V14.00,2013-06-06 11:25:00,
2013-06-06 07:30:00,55.6,20.4,29.71,West,276,0.0,0.0,25,0.00,,---,0.00,VWS V14.00,2013-06-06 11:30:00,
2013-06-06 07:35:00,54.5,19.4,29.71,West,276,0.0,0.0,25,0.00,,---,0.00,VWS V14.00,2013-06-06 11:35:00,
2013-06-06 07:40:00,54.3,21.0,29.71,West,276,0.0,0.0,27,0.00,,---,0.00,VWS V14.00,2013-06-06 11:40:00,
2013-06-06 07:45:00,54.7,20.5,29.71,West,276,0.0,0.0,26,0.00,,---,0.00,VWS V14.00,2013-06-06 11:45:00,
2013-06-06 07:50:00,54.9,21.6,29.71,West,276,0.0,0.0,27,0.00,,---,0.00,VWS V14.00,2013-06-06 11:50:00,
2013-06-06 07:55:00,55.0,20.8,29.71,West,276,0.0,0.0,26,0.00,,---,0.00,VWS V14.00,2013-06-06 11:55:00,
2013-06-06 08:00:00,54.5,21.2,29.71,West,276,0.0,0.0,27,0.00,,---,0.00,VWS V14.00,2013-06-06 12:00:00,
2013-06-06 08:05:00,53.5,19.5,29.71,West,276,0.0,0.0,26,0.00,,---,0.00,VWS V14.00,2013-06-06 12:05:00,
2013-06-06 08:10:00,52.1,19.2,29.71,West,276,0.0,0.0,27,0.00,,---,0.00,VWS V14.00,2013-06-06 12:10:00,
2013-06-06 08:15:00,50.6,19.5,29.71,West,276,0.0,0.0,29,0.00,,---,0.00,VWS V14.00,2013-06-06 12:15:00,
2013-06-06 08:20:00,49.9,20.5,29.72,West,276,0.0,0.0,31,0.00,,---,0.00,VWS V14.00,2013-06-06 12:20:00,
2013-06-06 08:25:00,50.4,20.9,29.72,West,276,0.0,0.0,31,0.00,,---,0.00,VWS V14.00,2013-06-06 12:25:00,
2013-06-06 08:30:00,51.3,20.9,29.72,West,276,0.0,0.0,30,0.00,,---,0.00,VWS V14.00,2013-06-06 12:30:00,
2013-06-06 08:35:00,52.3,20.2,29.72,West,276,0.0,0.0,28,0.00,,---,0.00,VWS V14.00,2013-06-06 12:35:00,
2013-06-06 08:40:00,51.7,20.5,29.72,West,276,0.0,0.0,29,0.00,,---,0.00,VWS V14.00,2013-06-06 12:40:00,
2013-06-06 08:45:00,51.0,19.9,29.72,West,276,0.0,0.0,29,0.00,,---,0.00,VWS V14.00,2013-06-06 12:45:00,
2013-06-06 08:50:00,50.4,20.9,29.72,West,276,0.0,0.0,31,0.00,,---,0.00,VWS V14.00,2013-06-06 12:50:00,
2013-06-06 08:55:00,50.8,21.3,29.72,West,276,0.0,0.0,31,0.00,,---,0.00,VWS V14.00,2013-06-06 12:55:00,
2013-06-06 09:00:00,52.7,22.9,29.72,West,276,0.0,0.0,31,0.00,,---,0.00,VWS V14.00,2013-06-06 13:00:00,
2013-06-06 09:05:00,54.6,23.0,29.72,West,276,0.0,0.0,29,0.00,,---,0.00,VWS V14.00,2013-06-06 13:05:00,
2013-06-06 09:10:00,56.8,24.1,29.73,West,276,0.0,0.0,28,0.00,,---,0.00,VWS V14.00,2013-06-06 13:10:00,
2013-06-06 09:15:00,59.2,25.3,29.73,West,276,0.0,0.0,27,0.00,,---,0.00,VWS V14.00,2013-06-06 13:15:00,
2013-06-06 09:20:00,61.7,25.5,29.73,West,276,0.0,0.0,25,0.00,,---,0.00,VWS V14.00,2013-06-06 13:20:00,
2013-06-06 09:25:00,63.8,26.3,29.73,West,276,0.0,0.0,24,0.00,,---,0.00,VWS V14.00,2013-06-06 13:25:00,
2013-06-06 09:30:00,65.9,27.1,29.73,West,276,0.0,0.0,23,0.00,,---,0.00,VWS V14.00,2013-06-06 13:30:00,
2013-06-06 09:35:00,67.7,27.5,29.73,West,276,0.0,0.0,22,0.00,,---,0.00,VWS V14.00,2013-06-06 13:35:00,
2013-06-06 09:40:00,69.4,27.8,29.72,West,276,0.0,0.0,21,0.00,,---,0.00,VWS V14.00,2013-06-06 13:40:00,
2013-06-06 09:45:00,71.5,27.1,29.73,West,276,0.0,0.0,19,0.00,,---,0.00,VWS V14.00,2013-06-06 13:45:00,
2013-06-06 09:50:00,73.0,28.3,29.73,West,276,0.0,0.0,19,0.00,,---,0.00,VWS V14.00,2013-06-06 13:50:00,
2013-06-06 09:55:00,73.8,29.0,29.73,West,276,0.0,0.0,19,0.00,,---,0.00,VWS V14.00,2013-06-06 13:55:00,
2013-06-06 10:00:00,74.4,28.2,29.73,West,276,0.0,0.0,18,0.00,,---,0.00,VWS V14.00,2013-06-06 14:00:00,
2013-06-06 10:05:00,74.7,28.4,29.73,West,276,0.0,1.0,18,0.00,,---,0.00,VWS V14.00,2013-06-06 14:05:00,
2013-06-06 10:10:00,75.2,28.8,29.73,West,276,1.0,1.0,18,0.00,,---,0.00,VWS V14.00,2013-06-06 14:10:00,
2013-06-06 10:15:00,75.5,27.7,29.73,West,276,0.0,3.0,17,0.00,,---,0.00,VWS V14.00,2013-06-06 14:15:00,
2013-06-06 10:20:00,75.9,28.0,29.73,West,276,0.0,3.0,17,0.00,,---,0.00,VWS V14.00,2013-06-06 14:20:00,
2013-06-06 10:25:00,76.3,26.9,29.73,West,276,0.0,3.0,16,0.00,,---,0.00,VWS V14.00,2013-06-06 14:25:00,
2013-06-06 10:30:00,76.6,27.1,29.73,West,276,0.0,3.0,16,0.00,,---,0.00,VWS V14.00,2013-06-06 14:30:00,
2013-06-06 10:35:00,77.0,28.9,29.73,West,276,0.0,1.0,17,0.00,,---,0.00,VWS V14.00,2013-06-06 14:35:00,
2013-06-06 10:40:00,77.2,27.6,29.73,West,276,0.0,3.0,16,0.00,,---,0.00,VWS V14.00,2013-06-06 14:40:00,
2013-06-06 10:45:00,77.3,27.7,29.73,West,276,0.0,3.0,16,0.00,,---,0.00,VWS V14.00,2013-06-06 14:45:00,
2013-06-06 10:50:00,77.6,27.9,29.73,West,276,0.0,3.0,16,0.00,,---,0.00,VWS V14.00,2013-06-06 14:50:00,
2013-06-06 10:55:00,78.0,28.2,29.73,West,276,0.0,3.0,16,0.00,,---,0.00,VWS V14.00,2013-06-06 14:55:00,
2013-06-06 11:00:00,78.5,28.6,29.73,West,276,0.0,3.0,16,0.00,,---,0.00,VWS V14.00,2013-06-06 15:00:00,
2013-06-06 11:05:00,78.9,28.9,29.73,West,276,0.0,1.0,16,0.00,,---,0.00,VWS V14.00,2013-06-06 15:05:00,
2013-06-06 11:10:00,79.4,29.3,29.74,West,271,0.0,7.0,16,0.00,,---,0.00,VWS V14.00,2013-06-06 15:10:00,
2013-06-06 11:15:00,79.8,28.1,29.73,West,271,0.0,7.0,15,0.00,,---,0.00,VWS V14.00,2013-06-06 15:15:00,
2013-06-06 11:20:00,80.2,28.4,29.74,West,271,0.0,7.0,15,0.00,,---,0.00,VWS V14.00,2013-06-06 15:20:00,
2013-06-06 11:25:00,80.5,28.6,29.74,West,271,0.0,7.0,15,0.00,,---,0.00,VWS V14.00,2013-06-06 15:25:00,
2013-06-06 11:30:00,80.6,28.7,29.74,West,259,0.0,7.0,15,0.00,,---,0.00,VWS V14.00,2013-06-06 15:30:00,
2013-06-06 11:35:00,80.8,27.2,29.74,WNW,286,3.0,7.0,14,0.00,,---,0.00,VWS V14.00,2013-06-06 15:35:00,
2013-06-06 11:40:00,80.9,27.3,29.74,WNW,288,0.0,7.0,14,0.00,,---,0.00,VWS V14.00,2013-06-06 15:40:00,
2013-06-06 11:45:00,81.5,27.8,29.74,WNW,287,5.0,9.0,14,0.00,,---,0.00,VWS V14.00,2013-06-06 15:45:00,
2013-06-06 11:50:00,81.8,28.0,29.74,WNW,284,1.0,9.0,14,0.00,,---,0.00,VWS V14.00,2013-06-06 15:50:00,
2013-06-06 11:55:00,81.8,28.0,29.74,SW,214,0.0,9.0,14,0.00,,---,0.00,VWS V14.00,2013-06-06 15:55:00,
2013-06-06 12:00:00,81.9,28.1,29.74,WSW,257,0.0,10.0,14,0.00,,---,0.00,VWS V14.00,2013-06-06 16:00:00,
2013-06-06 12:05:00,82.0,28.1,29.74,West,266,0.0,9.0,14,0.00,,---,0.00,VWS V14.00,2013-06-06 16:05:00,
2013-06-06 12:10:00,82.6,28.6,29.74,WSW,251,7.0,9.0,14,0.00,,---,0.00,VWS V14.00,2013-06-06 16:10:00,
2013-06-06 12:15:00,82.5,28.5,29.74,WNW,297,11.0,11.0,14,0.00,,---,0.00,VWS V14.00,2013-06-06 16:15:00,
2013-06-06 12:20:00,82.5,28.5,29.74,West,273,0.0,12.0,14,0.00,,---,0.00,VWS V14.00,2013-06-06 16:20:00,
2013-06-06 12:25:00,83.0,27.1,29.74,West,261,0.0,12.0,13,0.00,,---,0.00,VWS V14.00,2013-06-06 16:25:00,
2013-06-06 12:30:00,83.8,27.8,29.74,WNW,296,5.0,14.0,13,0.00,,---,0.00,VWS V14.00,2013-06-06 16:30:00,
2013-06-06 12:35:00,83.3,27.4,29.74,WSW,252,5.0,10.0,13,0.00,,---,0.00,VWS V14.00,2013-06-06 16:35:00,
2013-06-06 12:40:00,83.6,27.6,29.74,West,262,0.0,10.0,13,0.00,,---,0.00,VWS V14.00,2013-06-06 16:40:00,
2013-06-06 12:45:00,84.3,28.2,29.74,WNW,287,3.0,10.0,13,0.00,,---,0.00,VWS V14.00,2013-06-06 16:45:00,
2013-06-06 12:51:00,84.2,28.1,29.74,WNW,290,0.0,11.0,13,0.00,,---,0.00,VWS V14.00,2013-06-06 16:51:00,
2013-06-06 12:56:00,84.4,28.2,29.74,West,264,4.0,11.0,13,0.00,,---,0.00,VWS V14.00,2013-06-06 16:56:00,
2013-06-06 13:00:00,84.6,26.5,29.74,SW,231,0.0,11.0,12,0.00,,---,0.00,VWS V14.00,2013-06-06 17:00:00,
2013-06-06 13:01:00,84.5,26.4,29.74,SW,231,0.0,11.0,12,0.00,,---,0.00,VWS V14.00,2013-06-06 17:01:00,
2013-06-06 13:06:00,85.1,28.8,29.74,SW,224,5.0,10.0,13,0.00,,---,0.00,VWS V14.00,2013-06-06 17:06:00,
2013-06-06 13:11:00,85.3,27.0,29.74,West,281,2.0,10.0,12,0.00,,---,0.00,VWS V14.00,2013-06-06 17:11:00,
2013-06-06 13:16:00,85.2,26.9,29.74,WNW,296,0.0,10.0,12,0.00,,---,0.00,VWS V14.00,2013-06-06 17:16:00,
2013-06-06 13:21:00,85.5,27.1,29.73,WNW,292,7.0,10.0,12,0.00,,---,0.00,VWS V14.00,2013-06-06 17:21:00,
2013-06-06 13:26:00,85.9,27.5,29.73,WNW,294,0.0,11.0,12,0.00,,---,0.00,VWS V14.00,2013-06-06 17:26:00,
2013-06-06 13:30:00,86.1,27.6,29.73,WNW,296,0.0,11.0,12,0.00,,---,0.00,VWS V14.00,2013-06-06 17:30:00,
2013-06-06 13:31:00,86.0,27.5,29.73,WNW,296,0.0,11.0,12,0.00,,---,0.00,VWS V14.00,2013-06-06 17:31:00,
2013-06-06 13:36:00,86.2,27.7,29.73,WSW,244,0.0,5.0,12,0.00,,---,0.00,VWS V14.00,2013-06-06 17:36:00,
2013-06-06 13:41:00,86.8,28.1,29.73,West,261,0.0,10.0,12,0.00,,---,0.00,VWS V14.00,2013-06-06 17:41:00,
2013-06-06 13:46:00,86.7,28.1,29.73,SW,232,0.0,11.0,12,0.00,,---,0.00,VWS V14.00,2013-06-06 17:46:00,
2013-06-06 13:51:00,86.3,27.8,29.73,ESE,104,5.0,11.0,12,0.00,,---,0.00,VWS V14.00,2013-06-06 17:51:00,
2013-06-06 13:56:00,86.6,28.0,29.73,SW,227,5.0,14.0,12,0.00,,---,0.00,VWS V14.00,2013-06-06 17:56:00,
2013-06-06 14:00:00,86.9,26.1,29.72,SW,224,0.0,14.0,11,0.00,,---,0.00,VWS V14.00,2013-06-06 18:00:00,
2013-06-06 14:01:00,86.9,26.1,29.72,SW,224,0.0,14.0,11,0.00,,---,0.00,VWS V14.00,2013-06-06 18:01:00,
2013-06-06 14:06:00,87.1,26.3,29.73,SSW,209,0.0,10.0,11,0.00,,---,0.00,VWS V14.00,2013-06-06 18:06:00,
2013-06-06 14:12:00,87.8,26.8,29.72,WNW,282,3.0,10.0,11,0.00,,---,0.00,VWS V14.00,2013-06-06 18:12:00,
2013-06-06 14:17:00,87.8,26.8,29.72,WNW,296,0.0,10.0,11,0.00,,---,0.00,VWS V14.00,2013-06-06 18:17:00,
2013-06-06 14:22:00,88.4,27.3,29.72,WSW,238,3.0,10.0,11,0.00,,---,0.00,VWS V14.00,2013-06-06 18:22:00,
2013-06-06 14:27:00,88.6,27.4,29.72,WSW,248,0.0,10.0,11,0.00,,---,0.00,VWS V14.00,2013-06-06 18:27:00,
2013-06-06 14:30:00,88.6,27.4,29.72,SSW,198,0.0,14.0,11,0.00,,---,0.00,VWS V14.00,2013-06-06 18:30:00,
2013-06-06 14:32:00,88.6,27.4,29.72,SSW,202,0.0,1.0,11,0.00,,---,0.00,VWS V14.00,2013-06-06 18:32:00,
2013-06-06 14:37:00,88.3,27.2,29.72,SSE,147,0.0,15.0,11,0.00,,---,0.00,VWS V14.00,2013-06-06 18:37:00,
2013-06-06 14:42:00,88.7,27.5,29.72,SSW,207,2.0,15.0,11,0.00,,---,0.00,VWS V14.00,2013-06-06 18:42:00,
2013-06-06 14:47:00,88.7,27.5,29.71,SW,232,1.0,15.0,11,0.00,,---,0.00,VWS V14.00,2013-06-06 18:47:00,
2013-06-06 14:52:00,88.8,27.6,29.71,SE,135,0.0,15.0,11,0.00,,---,0.00,VWS V14.00,2013-06-06 18:52:00,
2013-06-06 14:57:00,88.9,27.7,29.71,East,96,0.0,15.0,11,0.00,,---,0.00,VWS V14.00,2013-06-06 18:57:00,
2013-06-06 15:02:00,89.3,28.0,29.71,SW,221,0.0,0.0,11,0.00,,---,0.00,VWS V14.00,2013-06-06 19:02:00,
2013-06-06 15:07:00,89.5,28.1,29.71,SE,125,0.0,3.0,11,0.00,,---,0.00,VWS V14.00,2013-06-06 19:07:00,
2013-06-06 15:12:00,89.8,26.0,29.71,SE,141,0.0,3.0,10,0.00,,---,0.00,VWS V14.00,2013-06-06 19:12:00,
2013-06-06 15:17:00,90.2,28.6,29.71,SSW,192,3.0,20.0,11,0.00,,---,0.00,VWS V14.00,2013-06-06 19:17:00,
2013-06-06 15:22:00,90.4,26.5,29.71,West,267,0.0,20.0,10,0.00,,---,0.00,VWS V14.00,2013-06-06 19:22:00,
2013-06-06 15:27:00,90.1,26.3,29.71,West,267,6.0,20.0,10,0.00,,---,0.00,VWS V14.00,2013-06-06 19:27:00,
2013-06-06 15:30:00,90.5,26.6,29.71,SW,219,0.0,20.0,10,0.00,,---,0.00,VWS V14.00,2013-06-06 19:30:00,
2013-06-06 15:32:00,90.6,26.6,29.71,SW,218,0.0,1.0,10,0.00,,---,0.00,VWS V14.00,2013-06-06 19:32:00,
2013-06-06 15:35:00,90.5,26.6,29.71,SW,221,0.0,2.0,10,0.00,,---,0.00,VWS V14.00,2013-06-06 19:35:00,
2013-06-06 15:40:00,90.9,26.9,29.70,South,180,3.0,11.0,10,0.00,,---,0.00,VWS V14.00,2013-06-06 19:40:00,
2013-06-06 15:45:00,90.3,26.4,29.70,NNE,18,7.0,12.0,10,0.00,,---,0.00,VWS V14.00,2013-06-06 19:45:00,
2013-06-06 15:50:00,90.3,26.4,29.70,South,180,6.0,12.0,10,0.00,,---,0.00,VWS V14.00,2013-06-06 19:50:00,
2013-06-06 15:55:00,91.0,27.0,29.69,SE,129,0.0,12.0,10,0.00,,---,0.00,VWS V14.00,2013-06-06 19:55:00,
2013-06-06 16:00:00,91.5,27.3,29.69,ENE,71,0.0,12.0,10,0.00,,---,0.00,VWS V14.00,2013-06-06 20:00:00,
2013-06-06 16:05:00,92.0,27.7,29.69,East,97,0.0,6.0,10,0.00,,---,0.00,VWS V14.00,2013-06-06 20:05:00,
2013-06-06 16:10:00,92.1,27.8,29.69,SSE,165,4.0,9.0,10,0.00,,---,0.00,VWS V14.00,2013-06-06 20:10:00,
2013-06-06 16:15:00,92.0,27.7,29.68,South,188,0.0,12.0,10,0.00,,---,0.00,VWS V14.00,2013-06-06 20:15:00,
2013-06-06 16:20:00,91.9,27.6,29.69,SSE,150,0.0,15.0,10,0.00,,---,0.00,VWS V14.00,2013-06-06 20:20:00,
2013-06-06 16:25:00,92.1,27.8,29.69,SSE,148,2.0,15.0,10,0.00,,---,0.00,VWS V14.00,2013-06-06 20:25:00,
2013-06-06 16:30:00,92.3,27.9,29.69,South,184,0.0,15.0,10,0.00,,---,0.00,VWS V14.00,2013-06-06 20:30:00,
2013-06-06 16:35:00,92.8,28.3,29.68,South,182,0.0,0.0,10,0.00,,---,0.00,VWS V14.00,2013-06-06 20:35:00,
2013-06-06 16:40:00,93.3,26.1,29.68,SE,142,1.0,9.0,9,0.00,,---,0.00,VWS V14.00,2013-06-06 20:40:00,
2013-06-06 16:45:00,93.3,26.1,29.67,East,86,0.0,12.0,9,0.00,,---,0.00,VWS V14.00,2013-06-06 20:45:00,
2013-06-06 16:50:00,92.8,25.8,29.67,WSW,248,5.0,17.0,9,0.00,,---,0.00,VWS V14.00,2013-06-06 20:50:00,
2013-06-06 16:55:00,92.5,25.5,29.67,WNW,284,7.0,17.0,9,0.00,,---,0.00,VWS V14.00,2013-06-06 20:55:00,
2013-06-06 17:00:00,92.4,25.5,29.67,WSW,255,4.0,17.0,9,0.00,,---,0.00,VWS V14.00,2013-06-06 21:00:00,
2013-06-06 17:05:00,92.4,25.5,29.67,North,360,1.0,13.0,9,0.00,,---,0.00,VWS V14.00,2013-06-06 21:05:00,
2013-06-06 17:10:00,92.5,25.5,29.67,SSW,199,4.0,13.0,9,0.00,,---,0.00,VWS V14.00,2013-06-06 21:10:00,
2013-06-06 17:15:00,93.0,25.9,29.66,SW,217,10.0,13.0,9,0.00,,---,0.00,VWS V14.00,2013-06-06 21:15:00,
2013-06-06 17:20:00,92.4,25.5,29.66,SW,217,5.0,13.0,9,0.00,,---,0.00,VWS V14.00,2013-06-06 21:20:00,
2013-06-06 17:25:00,92.2,25.3,29.67,West,272,3.0,13.0,9,0.00,,---,0.00,VWS V14.00,2013-06-06 21:25:00,
2013-06-06 17:30:00,92.5,25.5,29.66,SW,224,2.0,13.0,9,0.00,,---,0.00,VWS V14.00,2013-06-06 21:30:00,
2013-06-06 17:35:00,92.6,25.6,29.66,SSE,159,2.0,10.0,9,0.00,,---,0.00,VWS V14.00,2013-06-06 21:35:00,
2013-06-06 17:40:00,92.9,25.8,29.66,WSW,238,12.0,12.0,9,0.00,,---,0.00,VWS V14.00,2013-06-06 21:40:00,
2013-06-06 17:45:00,93.2,26.0,29.66,SSE,159,0.0,13.0,9,0.00,,---,0.00,VWS V14.00,2013-06-06 21:45:00,
2013-06-06 17:50:00,94.1,26.7,29.66,SW,232,3.0,13.0,9,0.00,,---,0.00,VWS V14.00,2013-06-06 21:50:00,
2013-06-06 17:55:00,94.2,24.0,29.65,WSW,244,7.0,13.0,8,0.00,,---,0.00,VWS V14.00,2013-06-06 21:55:00,
2013-06-06 18:00:00,93.5,23.5,29.65,WSW,254,4.0,13.0,8,0.00,,---,0.00,VWS V14.00,2013-06-06 22:00:00,
2013-06-06 18:02:00,93.4,23.4,29.65,South,172,1.0,5.0,8,0.00,,---,0.00,VWS V14.00,2013-06-06 22:02:00,
2013-06-06 18:07:00,93.3,23.3,29.64,South,175,0.0,5.0,8,0.00,,---,0.00,VWS V14.00,2013-06-06 22:07:00,
2013-06-06 18:12:00,93.3,23.3,29.65,SSW,199,2.0,12.0,8,0.00,,---,0.00,VWS V14.00,2013-06-06 22:12:00,
2013-06-06 18:17:00,93.2,23.2,29.64,West,261,7.0,13.0,8,0.00,,---,0.00,VWS V14.00,2013-06-06 22:17:00,
2013-06-06 18:22:00,93.5,23.5,29.64,WSW,254,4.0,13.0,8,0.00,,---,0.00,VWS V14.00,2013-06-06 22:22:00,
2013-06-06 18:27:00,93.5,23.5,29.64,SW,219,9.0,14.0,8,0.00,,---,0.00,VWS V14.00,2013-06-06 22:27:00,
2013-06-06 18:30:00,93.1,23.2,29.64,NW,304,2.0,15.0,8,0.00,,---,0.00,VWS V14.00,2013-06-06 22:30:00,
2013-06-06 18:32:00,92.9,23.0,29.64,North,355,9.0,14.0,8,0.00,,---,0.00,VWS V14.00,2013-06-06 22:32:00,
2013-06-06 18:37:00,93.4,23.4,29.64,WNW,282,4.0,14.0,8,0.00,,---,0.00,VWS V14.00,2013-06-06 22:37:00,
2013-06-06 18:42:00,93.8,23.7,29.64,WSW,251,1.0,14.0,8,0.00,,---,0.00,VWS V14.00,2013-06-06 22:42:00,
2013-06-06 18:47:00,93.6,23.5,29.64,West,273,5.0,14.0,8,0.00,,---,0.00,VWS V14.00,2013-06-06 22:47:00,
2013-06-06 18:53:00,93.2,23.2,29.64,West,266,5.0,14.0,8,0.00,,---,0.00,VWS V14.00,2013-06-06 22:53:00,
2013-06-06 18:58:00,93.3,23.3,29.64,West,276,1.0,14.0,8,0.00,,---,0.00,VWS V14.00,2013-06-06 22:58:00,
2013-06-06 19:00:00,93.6,23.5,29.64,SW,232,1.0,14.0,8,0.00,,---,0.00,VWS V14.00,2013-06-06 23:00:00,
2013-06-06 19:03:00,93.6,23.5,29.64,West,275,1.0,4.0,8,0.00,,---,0.00,VWS V14.00,2013-06-06 23:03:00,
2013-06-06 19:08:00,93.9,23.8,29.64,WNW,284,5.0,6.0,8,0.00,,---,0.00,VWS V14.00,2013-06-06 23:08:00,
2013-06-06 19:13:00,93.7,23.6,29.64,SW,223,1.0,12.0,8,0.00,,---,0.00,VWS V14.00,2013-06-06 23:13:00,
2013-06-06 19:18:00,93.5,23.5,29.64,South,175,0.0,12.0,8,0.00,,---,0.00,VWS V14.00,2013-06-06 23:18:00,
2013-06-06 19:23:00,93.8,23.7,29.63,West,266,7.0,12.0,8,0.00,,---,0.00,VWS V14.00,2013-06-06 23:23:00,
2013-06-06 19:28:00,93.6,23.5,29.63,NW,305,9.0,12.0,8,0.00,,---,0.00,VWS V14.00,2013-06-06 23:28:00,
2013-06-06 19:30:00,93.3,23.3,29.63,West,278,1.0,12.0,8,0.00,,---,0.00,VWS V14.00,2013-06-06 23:30:00,
2013-06-06 19:33:00,93.2,23.2,29.63,WSW,247,4.0,6.0,8,0.00,,---,0.00,VWS V14.00,2013-06-06 23:33:00,
2013-06-06 19:38:00,93.2,23.2,29.63,WNW,288,5.0,6.0,8,0.00,,---,0.00,VWS V14.00,2013-06-06 23:38:00,
2013-06-06 19:43:00,93.2,23.2,29.63,West,275,6.0,10.0,8,0.00,,---,0.00,VWS V14.00,2013-06-06 23:43:00,
2013-06-06 19:48:00,93.1,23.2,29.62,WNW,288,0.0,10.0,8,0.00,,---,0.00,VWS V14.00,2013-06-06 23:48:00,
2013-06-06 19:53:00,93.1,23.2,29.62,West,275,4.0,10.0,8,0.00,,---,0.00,VWS V14.00,2013-06-06 23:53:00,
2013-06-06 19:58:00,92.9,23.0,29.62,WSW,250,3.0,10.0,8,0.00,,---,0.00,VWS V14.00,2013-06-06 23:58:00,
2013-06-06 20:00:00,92.9,23.0,29.62,WSW,257,0.0,10.0,8,0.00,,---,0.00,VWS V14.00,2013-06-07 00:00:00,
2013-06-06 20:03:00,92.9,23.0,29.62,NW,319,6.0,8.0,8,0.00,,---,0.00,VWS V14.00,2013-06-07 00:03:00,
2013-06-06 20:08:00,92.3,22.6,29.62,NNW,336,0.0,11.0,8,0.00,,---,0.00,VWS V14.00,2013-06-07 00:08:00,
2013-06-06 20:13:00,92.7,22.9,29.62,SSW,207,3.0,11.0,8,0.00,,---,0.00,VWS V14.00,2013-06-07 00:13:00,
2013-06-06 20:18:00,93.2,23.2,29.62,SW,215,9.0,11.0,8,0.00,,---,0.00,VWS V14.00,2013-06-07 00:18:00,
2013-06-06 20:23:00,93.5,23.5,29.62,WSW,252,1.0,16.0,8,0.00,,---,0.00,VWS V14.00,2013-06-07 00:23:00,
2013-06-06 20:28:00,93.5,23.5,29.61,SW,220,5.0,16.0,8,0.00,,---,0.00,VWS V14.00,2013-06-07 00:28:00,
2013-06-06 20:30:00,93.3,23.3,29.61,SW,216,0.0,16.0,8,0.00,,---,0.00,VWS V14.00,2013-06-07 00:30:00,
2013-06-06 20:33:00,93.3,23.3,29.61,SSW,207,0.0,1.0,8,0.00,,---,0.00,VWS V14.00,2013-06-07 00:33:00,
2013-06-06 20:38:00,93.1,23.2,29.61,West,261,1.0,5.0,8,0.00,,---,0.00,VWS V14.00,2013-06-07 00:38:00,
2013-06-06 20:43:00,93.0,23.1,29.62,WSW,257,5.0,11.0,8,0.00,,---,0.00,VWS V14.00,2013-06-07 00:43:00,
2013-06-06 20:48:00,92.9,23.0,29.61,WSW,241,3.0,11.0,8,0.00,,---,0.00,VWS V14.00,2013-06-07 00:48:00,
2013-06-06 20:53:00,92.6,22.8,29.62,SSW,212,1.0,11.0,8,0.00,,---,0.00,VWS V14.00,2013-06-07 00:53:00,
2013-06-06 20:58:00,92.3,22.6,29.61,SSW,209,3.0,11.0,8,0.00,,---,0.00,VWS V14.00,2013-06-07 00:58:00,
2013-06-06 21:00:00,92.4,25.5,29.62,SW,223,1.0,11.0,9,0.00,,---,0.00,VWS V14.00,2013-06-07 01:00:00,
2013-06-06 21:03:00,92.4,25.5,29.62,SW,236,3.0,3.0,9,0.00,,---,0.00,VWS V14.00,2013-06-07 01:03:00,
2013-06-06 21:08:00,92.3,25.4,29.61,West,275,5.0,7.0,9,0.00,,---,0.00,VWS V14.00,2013-06-07 01:08:00,
2013-06-06 21:13:00,92.1,25.2,29.62,SW,228,4.0,7.0,9,0.00,,---,0.00,VWS V14.00,2013-06-07 01:13:00,
2013-06-06 21:18:00,91.7,27.5,29.62,West,263,2.0,10.0,10,0.00,,---,0.00,VWS V14.00,2013-06-07 01:18:00,
2013-06-06 21:23:00,91.3,27.2,29.62,West,263,3.0,10.0,10,0.00,,---,0.00,VWS V14.00,2013-06-07 01:23:00,
2013-06-06 21:28:00,90.9,26.9,29.62,West,271,4.0,10.0,10,0.00,,---,0.00,VWS V14.00,2013-06-07 01:28:00,
2013-06-06 21:30:00,90.7,26.7,29.62,WSW,257,3.0,10.0,10,0.00,,---,0.00,VWS V14.00,2013-06-07 01:30:00,
2013-06-06 21:33:00,90.5,26.6,29.62,WSW,246,2.0,5.0,10,0.00,,---,0.00,VWS V14.00,2013-06-07 01:33:00,
2013-06-06 21:38:00,90.4,26.5,29.62,West,271,2.0,5.0,10,0.00,,---,0.00,VWS V14.00,2013-06-07 01:38:00,
2013-06-06 21:43:00,90.2,26.3,29.62,West,273,2.0,5.0,10,0.00,,---,0.00,VWS V14.00,2013-06-07 01:43:00,
2013-06-06 21:48:00,89.9,26.1,29.62,West,275,1.0,5.0,10,0.00,,---,0.00,VWS V14.00,2013-06-07 01:48:00,
2013-06-06 21:53:00,89.5,25.8,29.62,West,275,5.0,5.0,10,0.00,,---,0.00,VWS V14.00,2013-06-07 01:53:00,
2013-06-06 21:58:00,89.0,27.7,29.62,West,267,1.0,5.0,11,0.00,,---,0.00,VWS V14.00,2013-06-07 01:58:00,
2013-06-06 22:00:00,88.6,27.4,29.62,West,278,3.0,5.0,11,0.00,,---,0.00,VWS V14.00,2013-06-07 02:00:00,
2013-06-06 22:03:00,88.3,27.2,29.63,West,267,5.0,5.0,11,0.00,,---,0.00,VWS V14.00,2013-06-07 02:03:00,
2013-06-06 22:08:00,87.7,26.7,29.63,West,277,0.0,12.0,11,0.00,,---,0.00,VWS V14.00,2013-06-07 02:08:00,
2013-06-06 22:13:00,87.1,26.3,29.63,West,274,4.0,12.0,11,0.00,,---,0.00,VWS V14.00,2013-06-07 02:13:00,
2013-06-06 22:18:00,86.5,27.9,29.63,WNW,282,1.0,12.0,12,0.00,,---,0.00,VWS V14.00,2013-06-07 02:18:00,
2013-06-06 22:23:00,85.7,27.3,29.63,West,281,0.0,12.0,12,0.00,,---,0.00,VWS V14.00,2013-06-07 02:23:00,
2013-06-06 22:28:00,85.2,26.9,29.64,West,277,1.0,12.0,12,0.00,,---,0.00,VWS V14.00,2013-06-07 02:28:00,
2013-06-06 22:30:00,84.7,26.5,29.63,West,277,0.0,12.0,12,0.00,,---,0.00,VWS V14.00,2013-06-07 02:30:00,
2013-06-06 22:33:00,84.5,26.4,29.64,West,277,0.0,1.0,12,0.00,,---,0.00,VWS V14.00,2013-06-07 02:33:00,
2013-06-06 22:38:00,83.7,25.8,29.64,West,277,0.0,1.0,12,0.00,,---,0.00,VWS V14.00,2013-06-07 02:38:00,
2013-06-06 22:43:00,82.9,25.1,29.64,West,277,0.0,1.0,12,0.00,,---,0.00,VWS V14.00,2013-06-07 02:43:00,
2013-06-06 22:48:00,82.0,26.4,29.64,West,277,0.0,1.0,13,0.00,,---,0.00,VWS V14.00,2013-06-07 02:48:00,
2013-06-06 22:53:00,80.7,25.3,29.65,West,277,0.0,1.0,13,0.00,,---,0.00,VWS V14.00,2013-06-07 02:53:00,
2013-06-06 22:58:00,79.5,24.4,29.65,West,277,0.0,1.0,13,0.00,,---,0.00,VWS V14.00,2013-06-07 02:58:00,
2013-06-06 23:00:00,78.6,25.5,29.65,West,277,0.0,1.0,14,0.00,,---,0.00,VWS V14.00,2013-06-07 03:00:00,
2013-06-06 23:03:00,78.0,25.0,29.65,West,277,0.0,0.0,14,0.00,,---,0.00,VWS V14.00,2013-06-07 03:03:00,
2013-06-06 23:08:00,76.3,25.3,29.66,West,277,0.0,0.0,15,0.00,,---,0.00,VWS V14.00,2013-06-07 03:08:00,
2013-06-06 23:13:00,75.1,24.3,29.66,West,277,0.0,0.0,15,0.00,,---,0.00,VWS V14.00,2013-06-07 03:13:00,
2013-06-06 23:18:00,73.9,24.9,29.66,West,277,0.0,0.0,16,0.00,,---,0.00,VWS V14.00,2013-06-07 03:18:00,
2013-06-06 23:23:00,73.1,24.3,29.66,West,277,0.0,0.0,16,0.00,,---,0.00,VWS V14.00,2013-06-07 03:23:00,
2013-06-06 23:28:00,72.9,25.6,29.66,West,277,0.0,0.0,17,0.00,,---,0.00,VWS V14.00,2013-06-07 03:28:00,
2013-06-06 23:30:00,72.7,24.0,29.66,West,277,0.0,0.0,16,0.00,,---,0.00,VWS V14.00,2013-06-07 03:30:00,
2013-06-06 23:33:00,72.5,25.2,29.66,West,277,0.0,0.0,17,0.00,,---,0.00,VWS V14.00,2013-06-07 03:33:00,
2013-06-06 23:38:00,72.5,25.2,29.66,West,277,0.0,0.0,17,0.00,,---,0.00,VWS V14.00,2013-06-07 03:38:00,
2013-06-06 23:43:00,71.9,23.3,29.66,West,277,0.0,0.0,16,0.00,,---,0.00,VWS V14.00,2013-06-07 03:43:00,
2013-06-06 23:48:00,71.1,22.7,29.66,West,277,0.0,0.0,16,0.00,,---,0.00,VWS V14.00,2013-06-07 03:48:00,
2013-06-06 23:53:00,70.3,24.8,29.67,West,277,0.0,0.0,18,0.00,,---,0.00,VWS V14.00,2013-06-07 03:53:00,
2013-06-06 23:58:00,69.5,24.2,29.67,West,277,0.0,0.0,18,0.00,,---,0.00,VWS V14.00,2013-06-07 03:58:00,